User: anonymous   Login
Location: Strohbehn Observatory
(42.4649°N, 93.8239°W)
Time: 18:49:28
(UTC-05:00)
Language:

SL-16 R/B - Orbit

View from above orbital plane
View from above orbital plane
View from above satellite
View from above satellite

Ground track
Ground track

The orbit data is extracted from the following two-line orbital elements,

1 31793U 07029B   15243.17970890 -.00000159  00000-0 -58012-4 0  9994
2 31793 070.9782 327.0643 0002293 281.7695 098.8972 14.14341317421961
Epoch (UTC): 31 August 2015 04:18:46
Eccentricity: 0.0002293
inclination: 70.9782°
perigee height: 843 km
apogee height: 846 km
right ascension of ascending node: 327.0643°
argument of perigee: 281.7695°
revolutions per day: 14.14341317
mean anomaly at epoch: 98.8972°
orbit number at epoch: 42196

The dashed part of the orbit path shows where the satellite is in the earth's shadow,  

DLR